Weather Service Report


315 
ASUS42 KRAH 260310
RWRRAH
NORTH CAROLINA WEATHER ROUNDUP
NATIONAL WEATHER SERVICE RALEIGH NC
1100 PM EDT MON MAY 25 2015

NOTE: "FAIR" INDICATES FEW OR NO CLOUDS BELOW 12,000 FEET WITH NO
SIGNIFICANT WEATHER AND/OR OBSTRUCTIONS TO VISIBILITY.

NCZ001-053-055-056-065-067-260400-
WESTERN NORTH CAROLINA
  
CITY           SKY/WX    TMP DP  RH WIND       PRES   REMARKS
ASHEVILLE      CLOUDY    70  59  68 S6        30.30R                  
JEFFERSON      CLOUDY    62  54  73 CALM      30.33S                  
MORGANTON      MOCLDY    65  60  85 CALM      30.30S                  
HICKORY        MOCLDY    71  59  65 CALM      30.26R                  
RUTHERFORDTON  CLOUDY    71  62  71 SE3       30.26F                  
MOUNT AIRY     CLEAR     70  58  66 CALM      30.29S                  
BOONE          CLOUDY    65  55  71 CALM      30.34S                  
$$
 
NCZ021-022-025-041-071-084-088-260400-
CENTRAL NORTH CAROLINA
  
CITY           SKY/WX    TMP DP  RH WIND       PRES   REMARKS
CHARLOTTE      PTCLDY    73  60  63 S7        30.26R                  
GREENSBORO     PTCLDY    71  57  61 S5        30.26S                  
WINSTON-SALEM  CLEAR     68  57  68 CALM      30.27S                  
RALEIGH-DURHAM PTCLDY    72  59  63 S8        30.28R                  
FORT BRAGG     CLEAR     73  61  66 S6        30.28R                  
FAYETTEVILLE   CLEAR     72  61  68 S9        30.28R                  
BURLINGTON     CLEAR     66  60  81 CALM      30.26R                  
LAURINBURG     CLEAR     71  62  73 S7        30.29R                  
$$
 
NCZ011-015-027-028-043-044-047-080-103-260400-
NORTHEASTERN NORTH CAROLINA
  
CITY           SKY/WX    TMP DP  RH WIND       PRES   REMARKS
ROCKY MT-WILSO CLEAR     70  60  70 S6        30.30R                  
GREENVILLE     CLEAR     70  63  78 S7        30.31S                  
WASHINGTON     CLEAR     69  61  75 S6        30.32S                  
ELIZABETH CITY CLEAR     70  61  73 S9        30.31S                  
MANTEO         PTCLDY    73  64  74 S10       30.33S                  
CAPE HATTERAS  CLEAR     72  62  71 S10       30.33S                  
$$
 
NCZ078-087-090-091-093-098-101-260400-
SOUTHEASTERN NORTH CAROLINA
  
CITY           SKY/WX    TMP DP  RH WIND       PRES   REMARKS
LUMBERTON      CLEAR     70  62  76 SE6       30.28S                  
GOLDSBORO      NOT AVBL                                               
KINSTON        CLEAR     69  61  74 S3        30.32R                  
KENANSVILLE    CLEAR     65  60  82 CALM      30.32R                  
NEW BERN       CLEAR     64  59  83 CALM      30.33S                  
CHERRY POINT   CLEAR     65  60  84 SE5       30.33S                  
BEAUFORT       PTCLDY    72  63  73 S8        30.32S                  
JACKSONVILLE   CLEAR     68  62  81 SE6       30.30S                  
WILMINGTON     CLEAR     67  63  87 CALM      30.31R                  
$$


Return to Home page


Western Regional Climate Center, wrcc@dri.edu